| time (UTC) | temp C | wind direction | speed KPH | gust KPH | rain 1hr cm | rain 24hr cm | rain mn cm | humidity % | barometer mb |
| 20260903203803 | 30 | 168 | 8.0 | 19.3 | 0.00 | 0.05 | 0.05 | 72 | 1007.2 |
| 20260903202803 | 29 | 126 | 9.7 | 19.3 | 0.00 | 0.05 | 0.05 | 72 | 1007.2 |
| 20260903202306 | 29 | 147 | 9.7 | 24.1 | 0.00 | 0.05 | 0.05 | 72 | 1007.1 |
| 20260903201803 | 29 | 126 | 11.3 | 27.4 | 0.00 | 0.05 | 0.05 | 72 | 1007.3 |
| 20260903201303 | 29 | 154 | 9.7 | 19.3 | 0.00 | 0.05 | 0.05 | 72 | 1007.5 |
| 20260903200803 | 29 | 148 | 8.0 | 32.2 | 0.00 | 0.05 | 0.05 | 72 | 1007.7 |
| 20260903195803 | 30 | 144 | 8.0 | 22.5 | 0.00 | 0.05 | 0.05 | 67 | 1007.5 |
| 20260903194803 | 29 | 128 | 4.8 | 12.9 | 0.00 | 0.05 | 0.05 | 67 | 1007.7 |
| 20260903194303 | 28 | 113 | 8.0 | 19.3 | 0.00 | 0.05 | 0.05 | 67 | 1007.8 |
| 20260903193803 | 28 | 163 | 11.3 | 20.9 | 0.00 | 0.05 | 0.05 | 67 | 1007.7 |
| 20260903193303 | 28 | 124 | 9.7 | 22.5 | 0.00 | 0.05 | 0.05 | 67 | 1007.6 |
| 20260903192804 | 28 | 127 | 14.5 | 24.1 | 0.00 | 0.05 | 0.05 | 67 | 1007.6 |
| 20260903192306 | 28 | 126 | 9.7 | 19.3 | 0.00 | 0.05 | 0.05 | 67 | 1007.7 |
| 20260903191803 | 28 | 137 | 11.3 | 20.9 | 0.00 | 0.05 | 0.05 | 67 | 1007.9 |
| 20260903191303 | 29 | 118 | 11.3 | 25.7 | 0.00 | 0.05 | 0.05 | 67 | 1008.0 |
| 20260903190803 | 28 | 156 | 9.7 | 19.3 | 0.00 | 0.05 | 0.05 | 67 | 1007.9 |
| 20260903190303 | 29 | 149 | 12.9 | 20.9 | 0.00 | 0.05 | 0.05 | 67 | 1007.9 |
| 20260903185803 | 29 | 162 | 8.0 | 19.3 | 0.00 | 0.05 | 0.05 | 71 | 1008.0 |
| 20260903185306 | 29 | 130 | 8.0 | 22.5 | 0.00 | 0.05 | 0.05 | 71 | 1008.0 |
| 20260903184803 | 28 | 115 | 8.0 | 16.1 | 0.00 | 0.05 | 0.05 | 71 | 1008.1 |
| 20260903184303 | 28 | 151 | 11.3 | 20.9 | 0.00 | 0.05 | 0.05 | 71 | 1008.2 |
| 20260903183803 | 28 | 126 | 9.7 | 19.3 | 0.00 | 0.05 | 0.05 | 71 | 1008.4 |
| 20260903183303 | 28 | 122 | 8.0 | 20.9 | 0.00 | 0.05 | 0.05 | 71 | 1008.6 |
| 20260903182803 | 28 | 144 | 8.0 | 22.5 | 0.00 | 0.05 | 0.05 | 71 | 1008.7 |
| 20260903182306 | 28 | 138 | 9.7 | 25.7 | 0.00 | 0.05 | 0.05 | 71 | 1008.6 |
| 20260903181803 | 28 | 138 | 12.9 | 19.3 | 0.00 | 0.05 | 0.05 | 71 | 1008.8 |
| 20260903181304 | 28 | 136 | 4.8 | 19.3 | 0.00 | 0.05 | 0.05 | 71 | 1008.8 |
| 20260903180804 | 28 | 149 | 4.8 | 12.9 | 0.00 | 0.05 | 0.05 | 71 | 1008.7 |
| 20260903180303 | 28 | 155 | 9.7 | 20.9 | 0.00 | 0.05 | 0.05 | 71 | 1008.7 |
| 20260903175804 | 28 | 172 | 9.7 | 16.1 | 0.00 | 0.05 | 0.05 | 70 | 1008.6 |
| 20260903175306 | 28 | 182 | 4.8 | 14.5 | 0.00 | 0.05 | 0.05 | 70 | 1008.5 |
| 20260903174803 | 29 | 163 | 9.7 | 14.5 | 0.00 | 0.05 | 0.05 | 70 | 1008.5 |
| 20260903174303 | 29 | 172 | 4.8 | 14.5 | 0.00 | 0.05 | 0.05 | 70 | 1008.6 |
| 20260903173303 | 29 | 121 | 8.0 | 16.1 | 0.00 | 0.05 | 0.05 | 70 | 1008.6 |
| 20260903172803 | 28 | 167 | 3.2 | 12.9 | 0.00 | 0.05 | 0.05 | 70 | 1008.6 |
| 20260903172306 | 28 | 117 | 6.4 | 16.1 | 0.00 | 0.05 | 0.05 | 70 | 1008.5 |
| 20260903171803 | 28 | 102 | 4.8 | 12.9 | 0.00 | 0.05 | 0.05 | 70 | 1008.5 |
| 20260903171304 | 28 | 119 | 6.4 | 12.9 | 0.00 | 0.05 | 0.05 | 70 | 1008.4 |
| 20260903170803 | 28 | 128 | 4.8 | 11.3 | 0.00 | 0.05 | 0.05 | 70 | 1008.4 |
| 20260903170303 | 28 | 118 | 4.8 | 12.9 | 0.00 | 0.05 | 0.05 | 73 | 1008.5 |
| 20260903165803 | 27 | 146 | 1.6 | 8.0 | 0.00 | 0.05 | 0.05 | 84 | 1008.5 |
| 20260903165305 | 27 | 134 | 3.2 | 4.8 | 0.00 | 0.05 | 0.05 | 84 | 1008.7 |
| 20260903164803 | 27 | 163 | 4.8 | 8.0 | 0.00 | 0.05 | 0.05 | 84 | 1008.7 |
| 20260903164304 | 27 | 132 | 1.6 | 4.8 | 0.00 | 0.05 | 0.05 | 84 | 1008.6 |
| 20260903163804 | 27 | 123 | 0.0 | 8.0 | 0.00 | 0.05 | 0.05 | 84 | 1008.6 |
| 20260903163303 | 27 | 95 | 0.0 | 3.2 | 0.00 | 0.05 | 0.05 | 84 | 1008.5 |
| 20260903162804 | 27 | 123 | 1.6 | 4.8 | 0.00 | 0.05 | 0.05 | 84 | 1008.6 |
| 20260903162306 | 26 | 135 | 1.6 | 4.8 | 0.00 | 0.05 | 0.05 | 84 | 1008.5 |
| 20260903161803 | 26 | 140 | 1.6 | 14.5 | 0.00 | 0.05 | 0.05 | 84 | 1008.5 |
| 20260903161303 | 26 | 161 | 8.0 | 14.5 | 0.00 | 0.05 | 0.05 | 84 | 1008.4 |
| 20260903160803 | 26 | 154 | 4.8 | 12.9 | 0.00 | 0.05 | 0.05 | 84 | 1008.4 |
| 20260903160303 | 26 | 113 | 3.2 | 9.7 | 0.00 | 0.05 | 0.05 | 87 | 1008.5 |
| 20260903155803 | 26 | 169 | 1.6 | 8.0 | 0.00 | 0.05 | 0.05 | 98 | 1008.4 |
| 20260903155306 | 25 | 122 | 3.2 | 12.9 | 0.00 | 0.05 | 0.05 | 98 | 1008.4 |
| 20260903154803 | 25 | 138 | 3.2 | 16.1 | 0.00 | 0.05 | 0.05 | 98 | 1008.5 |
| 20260903154303 | 24 | 176 | 0.0 | 8.0 | 0.00 | 0.05 | 0.05 | 98 | 1008.5 |
| 20260903153803 | 24 | 142 | 4.8 | 11.3 | 0.00 | 0.05 | 0.05 | 98 | 1008.8 |
| 20260903153303 | 24 | 176 | 3.2 | 11.3 | 0.00 | 0.05 | 0.05 | 98 | 1008.9 |
| 20260903152306 | 24 | 91 | 4.8 | 9.7 | 0.00 | 0.05 | 0.05 | 98 | 1008.7 |
| 20260903151804 | 24 | 163 | 3.2 | 11.3 | 0.00 | 0.05 | 0.05 | 98 | 1008.6 |
| 20260903151303 | 24 | 144 | 8.0 | 14.5 | 0.00 | 0.05 | 0.05 | 98 | 1008.5 |
| 20260903150303 | 23 | 112 | 3.2 | 12.9 | 0.00 | 0.05 | 0.05 | 98 | 1008.4 |
| 20260903145803 | 23 | 92 | 1.6 | 11.3 | 0.00 | 0.05 | 0.05 | 100 | 1008.6 |
| 20260903145306 | 23 | 81 | 8.0 | 14.5 | 0.00 | 0.05 | 0.05 | 100 | 1008.6 |
| 20260903144303 | 22 | 96 | 3.2 | 14.5 | 0.00 | 0.05 | 0.05 | 100 | 1008.8 |
| 20260903143803 | 22 | 132 | 4.8 | 14.5 | 0.00 | 0.05 | 0.05 | 100 | 1008.9 |
| 20260903143303 | 22 | 189 | 4.8 | 12.9 | 0.00 | 0.05 | 0.05 | 100 | 1009.1 |
| 20260903142803 | 22 | 151 | 3.2 | 9.7 | 0.00 | 0.05 | 0.05 | 100 | 1008.9 |
| 20260903142306 | 22 | 207 | 1.6 | 12.9 | 0.00 | 0.05 | 0.05 | 100 | 1008.8 |
| 20260903141803 | 22 | 151 | 4.8 | 9.7 | 0.00 | 0.05 | 0.05 | 100 | 1008.6 |
| 20260903141303 | 22 | 219 | 4.8 | 12.9 | 0.00 | 0.05 | 0.05 | 100 | 1008.5 |
| 20260903140803 | 22 | 82 | 3.2 | 12.9 | 0.00 | 0.05 | 0.05 | 100 | 1008.3 |
| 20260903140303 | 22 | 0 | 3.2 | 9.7 | 0.00 | 0.05 | 0.05 | 100 | 1008.2 |
| 20260903135803 | 22 | 0 | 1.6 | 9.7 | 0.00 | 0.05 | 0.05 | 99 | 1008.4 |
| 20260903135306 | 21 | 0 | 1.6 | 9.7 | 0.03 | 0.05 | 0.05 | 99 | 1008.5 |
| 20260903134803 | 21 | 0 | 3.2 | 14.5 | 0.03 | 0.05 | 0.05 | 99 | 1008.5 |
| 20260903134303 | 21 | 202 | 4.8 | 12.9 | 0.03 | 0.05 | 0.05 | 99 | 1008.5 |
| 20260903132803 | 21 | 229 | 3.2 | 9.7 | 0.03 | 0.05 | 0.05 | 99 | 1009.1 |
| 20260903132306 | 21 | 195 | 4.8 | 8.0 | 0.03 | 0.05 | 0.05 | 99 | 1009.1 |
| 20260903131804 | 21 | 208 | 4.8 | 8.0 | 0.03 | 0.05 | 0.05 | 99 | 1009.3 |
| 20260903131304 | 21 | 202 | 3.2 | 4.8 | 0.03 | 0.05 | 0.05 | 99 | 1009.5 |
| 20260903130803 | 21 | 154 | 4.8 | 9.7 | 0.03 | 0.05 | 0.05 | 99 | 1009.9 |
| 20260903130303 | 21 | 151 | 4.8 | 9.7 | 0.05 | 0.05 | 0.05 | 99 | 1009.8 |
| 20260903125305 | 21 | 307 | 0.0 | 0.0 | 0.03 | 0.03 | 0.03 | 95 | 1009.6 |
| 20260903124804 | 21 | 306 | 0.0 | 1.6 | 0.03 | 0.03 | 0.03 | 95 | 1009.9 |
| 20260903124303 | 21 | 306 | 0.0 | 1.6 | 0.03 | 0.03 | 0.03 | 95 | 1009.9 |
| 20260903123303 | 21 | 305 | 1.6 | 4.8 | 0.03 | 0.03 | 0.03 | 95 | 1010.2 |
| 20260903122305 | 21 | 250 | 3.2 | 12.9 | 0.03 | 0.03 | 0.03 | 95 | 1009.6 |
| 20260903121803 | 21 | 255 | 3.2 | 12.9 | 0.03 | 0.03 | 0.03 | 95 | 1009.6 |
| 20260903121303 | 21 | 247 | 4.8 | 11.3 | 0.03 | 0.03 | 0.03 | 95 | 1009.5 |
| 20260903120303 | 21 | 295 | 3.2 | 19.3 | 0.00 | 0.00 | 0.00 | 95 | 1009.9 |
| 20260903115803 | 21 | 236 | 1.6 | 14.5 | 0.00 | 0.03 | 0.00 | 93 | 1009.8 |
| 20260903115305 | 21 | 217 | 3.2 | 16.1 | 0.00 | 0.03 | 0.00 | 93 | 1009.7 |
| 20260903114803 | 21 | 214 | 4.8 | 14.5 | 0.00 | 0.03 | 0.00 | 93 | 1009.6 |
| 20260903114303 | 21 | 252 | 1.6 | 11.3 | 0.00 | 0.03 | 0.00 | 93 | 1009.8 |
| 20260903113803 | 21 | 270 | 1.6 | 12.9 | 0.00 | 0.03 | 0.00 | 93 | 1009.8 |
| 20260903112803 | 21 | 218 | 1.6 | 9.7 | 0.00 | 0.03 | 0.00 | 93 | 1009.1 |
| 20260903112305 | 21 | 236 | 3.2 | 12.9 | 0.00 | 0.03 | 0.00 | 93 | 1009.1 |
| 20260903111803 | 21 | 222 | 4.8 | 16.1 | 0.00 | 0.03 | 0.00 | 93 | 1009.0 |
| 20260903111304 | 21 | 246 | 3.2 | 19.3 | 0.00 | 0.03 | 0.00 | 93 | 1009.2 |
| 20260903110803 | 21 | 227 | 3.2 | 8.0 | 0.00 | 0.03 | 0.00 | 93 | 1009.3 |
| 20260903110303 | 22 | 248 | 3.2 | 12.9 | 0.00 | 0.03 | 0.00 | 93 | 1009.4 |
| 20260903105804 | 21 | 245 | 4.8 | 19.3 | 0.00 | 0.03 | 0.00 | 95 | 1009.4 |
| 20260903105306 | 21 | 238 | 3.2 | 11.3 | 0.00 | 0.03 | 0.00 | 95 | 1009.6 |
| 20260903104303 | 22 | 252 | 3.2 | 9.7 | 0.00 | 0.03 | 0.00 | 95 | 1009.4 |
| 20260903103804 | 22 | 311 | 1.6 | 3.2 | 0.00 | 0.03 | 0.00 | 95 | 1009.6 |
| 20260903103303 | 22 | 311 | 3.2 | 11.3 | 0.00 | 0.03 | 0.00 | 95 | 1009.7 |
| 20260903102804 | 22 | 325 | 1.6 | 4.8 | 0.00 | 0.03 | 0.00 | 95 | 1009.8 |
| 20260903102305 | 22 | 306 | 3.2 | 11.3 | 0.00 | 0.03 | 0.00 | 95 | 1009.7 |
| 20260903101803 | 22 | 265 | 4.8 | 16.1 | 0.00 | 0.05 | 0.00 | 95 | 1009.8 |
| 20260903101303 | 22 | 298 | 4.8 | 12.9 | 0.00 | 0.05 | 0.00 | 95 | 1009.4 |
| 20260903100803 | 22 | 250 | 9.7 | 27.4 | 0.00 | 0.05 | 0.00 | 95 | 1008.8 |
| 20260903100303 | 22 | 217 | 4.8 | 24.1 | 0.00 | 0.05 | 0.00 | 95 | 1008.8 |
| 20260903095804 | 21 | 188 | 9.7 | 38.6 | 0.00 | 0.05 | 0.00 | 100 | 1009.2 |
| 20260903095305 | 21 | 191 | 8.0 | 29.0 | 0.00 | 0.05 | 0.00 | 100 | 1009.6 |
| 20260903094803 | 21 | 135 | 0.0 | 1.6 | 0.00 | 0.05 | 0.00 | 100 | 1009.4 |
| 20260903094306 | 21 | 134 | 0.0 | 1.6 | 0.00 | 0.05 | 0.00 | 100 | 1009.0 |
| 20260903093803 | 21 | 141 | 0.0 | 1.6 | 0.00 | 0.05 | 0.00 | 100 | 1008.7 |
| 20260903093303 | 21 | 141 | 0.0 | 0.0 | 0.00 | 0.05 | 0.00 | 100 | 1008.8 |
| 20260903092803 | 21 | 169 | 0.0 | 0.0 | 0.00 | 0.05 | 0.00 | 100 | 1009.0 |
| 20260903092306 | 21 | 190 | 0.0 | 0.0 | 0.00 | 0.05 | 0.00 | 100 | 1008.7 |
| 20260903091303 | 21 | 186 | 0.0 | 3.2 | 0.00 | 0.05 | 0.00 | 100 | 1008.3 |
| 20260903090803 | 21 | 180 | 1.6 | 3.2 | 0.00 | 0.05 | 0.00 | 100 | 1008.1 |
| 20260903090304 | 21 | 187 | 0.0 | 1.6 | 0.00 | 0.05 | 0.00 | 100 | 1008.5 |
| 20260903085803 | 21 | 182 | 0.0 | 1.6 | 0.00 | 0.05 | 0.00 | 100 | 1008.4 |
| 20260903084803 | 21 | 175 | 0.0 | 1.6 | 0.00 | 0.05 | 0.00 | 100 | 1008.5 |
| 20260903084303 | 21 | 188 | 0.0 | 1.6 | 0.00 | 0.05 | 0.00 | 100 | 1008.5 |
| 20260903082803 | 21 | 186 | 0.0 | 1.6 | 0.00 | 0.05 | 0.00 | 100 | 1008.4 |
| 20260903082306 | 21 | 193 | 0.0 | 0.0 | 0.00 | 0.05 | 0.00 | 100 | 1008.5 |
| 20260903081803 | 21 | 186 | 0.0 | 0.0 | 0.00 | 0.05 | 0.00 | 100 | 1008.4 |
| 20260903081303 | 21 | 186 | 0.0 | 0.0 | 0.00 | 0.05 | 0.00 | 100 | 1008.4 |
| 20260903080803 | 21 | 184 | 0.0 | 1.6 | 0.00 | 0.05 | 0.00 | 100 | 1008.4 |
| 20260903080303 | 21 | 189 | 0.0 | 0.0 | 0.00 | 0.05 | 0.00 | 100 | 1008.4 |
| 20260903075803 | 21 | 184 | 0.0 | 0.0 | 0.00 | 0.05 | 0.00 | 100 | 1008.4 |
| 20260903075306 | 21 | 180 | 0.0 | 0.0 | 0.00 | 0.05 | 0.00 | 100 | 1008.4 |
| 20260903074803 | 21 | 187 | 0.0 | 0.0 | 0.00 | 0.05 | 0.00 | 100 | 1008.4 |
| 20260903074303 | 20 | 184 | 0.0 | 0.0 | 0.00 | 0.08 | 0.00 | 100 | 1008.5 |
| 20260903073804 | 20 | 184 | 0.0 | 0.0 | 0.00 | 0.08 | 0.00 | 100 | 1008.4 |
| 20260903073303 | 20 | 187 | 0.0 | 0.0 | 0.00 | 0.08 | 0.00 | 100 | 1008.6 |
| 20260903072804 | 21 | 182 | 0.0 | 0.0 | 0.00 | 0.10 | 0.00 | 100 | 1008.7 |
| 20260903072306 | 21 | 187 | 0.0 | 0.0 | 0.00 | 0.15 | 0.00 | 100 | 1008.7 |
| 20260903071303 | 21 | 173 | 0.0 | 0.0 | 0.00 | 0.15 | 0.00 | 100 | 1008.6 |
| 20260903070803 | 21 | 171 | 0.0 | 0.0 | 0.00 | 0.18 | 0.00 | 100 | 1008.7 |
| 20260903070303 | 21 | 168 | 0.0 | 0.0 | 0.00 | 0.18 | 0.00 | 100 | 1008.7 |
| 20260903065803 | 21 | 173 | 0.0 | 0.0 | 0.00 | 0.20 | 0.00 | 100 | 1008.7 |
| 20260903065305 | 21 | 172 | 0.0 | 0.0 | 0.00 | 0.25 | 0.00 | 100 | 1008.8 |
| 20260903064803 | 21 | 173 | 0.0 | 0.0 | 0.00 | 0.36 | 0.00 | 100 | 1008.8 |
| 20260903064303 | 21 | 168 | 0.0 | 0.0 | 0.00 | 0.46 | 0.00 | 100 | 1008.8 |
| 20260903063804 | 21 | 167 | 0.0 | 0.0 | 0.00 | 0.71 | 0.00 | 100 | 1008.8 |
| 20260903062803 | 21 | 167 | 0.0 | 0.0 | 0.00 | 1.50 | 0.00 | 100 | 1008.8 |
| 20260903062306 | 21 | 174 | 0.0 | 0.0 | 0.00 | 1.70 | 0.00 | 100 | 1008.9 |
| 20260903061303 | 21 | 171 | 0.0 | 0.0 | 0.00 | 1.83 | 0.00 | 100 | 1008.8 |
| 20260903060803 | 21 | 173 | 0.0 | 0.0 | 0.00 | 1.83 | 0.00 | 100 | 1008.9 |
| 20260903055803 | 21 | 169 | 0.0 | 0.0 | 0.00 | 1.88 | 0.00 | 100 | 1008.9 |
| 20260903055306 | 21 | 167 | 0.0 | 0.0 | 0.00 | 2.18 | 0.00 | 100 | 1008.9 |
| 20260903054303 | 21 | 175 | 0.0 | 0.0 | 0.00 | 2.26 | 0.00 | 100 | 1009.0 |
| 20260903052306 | 21 | 173 | 0.0 | 0.0 | 0.00 | 2.26 | 0.00 | 100 | 1009.1 |
| 20260903051803 | 21 | 167 | 0.0 | 0.0 | 0.00 | 2.26 | 0.00 | 100 | 1009.2 |
| 20260903050303 | 21 | 173 | 0.0 | 0.0 | 0.00 | 2.31 | 0.00 | 100 | 1009.2 |
| 20260903045803 | 21 | 0 | 0.0 | 0.0 | 0.00 | 2.31 | 2.31 | 100 | 1009.2 |
| 20260903045306 | 21 | 0 | 0.0 | 0.0 | 0.00 | 2.34 | 2.31 | 100 | 1009.1 |
| 20260903044803 | 21 | 0 | 0.0 | 0.0 | 0.00 | 2.34 | 2.31 | 100 | 1009.1 |
| 20260903044303 | 21 | 0 | 0.0 | 0.0 | 0.00 | 2.34 | 2.31 | 100 | 1009.1 |
| 20260903042803 | 21 | 0 | 0.0 | 0.0 | 0.00 | 2.34 | 2.31 | 100 | 1009.1 |
| 20260903042306 | 21 | 342 | 0.0 | 0.0 | 0.00 | 2.34 | 2.31 | 100 | 1009.1 |
| 20260903041303 | 21 | 306 | 0.0 | 0.0 | 0.00 | 2.34 | 2.31 | 100 | 1009.1 |
| 20260903040804 | 21 | 342 | 0.0 | 0.0 | 0.00 | 2.34 | 2.31 | 100 | 1009.1 |
| 20260903040304 | 21 | 220 | 0.0 | 0.0 | 0.00 | 2.34 | 2.31 | 100 | 1009.2 |
| 20260903035803 | 22 | 204 | 0.0 | 0.0 | 0.00 | 2.34 | 2.31 | 100 | 1009.2 |
| 20260903035306 | 22 | 206 | 0.0 | 0.0 | 0.00 | 2.34 | 2.31 | 100 | 1009.2 |
| 20260903034804 | 22 | 189 | 0.0 | 0.0 | 0.00 | 2.34 | 2.31 | 100 | 1009.3 |
| 20260903034303 | 22 | 186 | 0.0 | 0.0 | 0.00 | 2.34 | 2.31 | 100 | 1009.3 |
| 20260903033803 | 22 | 184 | 0.0 | 0.0 | 0.00 | 2.34 | 2.31 | 100 | 1009.4 |
| 20260903033303 | 22 | 182 | 0.0 | 0.0 | 0.00 | 2.34 | 2.31 | 100 | 1009.4 |
| 20260903032803 | 22 | 186 | 0.0 | 0.0 | 0.00 | 2.34 | 2.31 | 100 | 1009.4 |
| 20260903032305 | 22 | 184 | 0.0 | 0.0 | 0.00 | 2.34 | 2.31 | 100 | 1009.4 |
| 20260903031303 | 22 | 183 | 0.0 | 0.0 | 0.00 | 2.34 | 2.31 | 100 | 1009.5 |
| 20260903030803 | 22 | 172 | 0.0 | 0.0 | 0.00 | 2.34 | 2.31 | 100 | 1009.5 |
| 20260903025804 | 22 | 174 | 0.0 | 0.0 | 0.00 | 2.34 | 2.31 | 100 | 1009.5 |
| 20260903025306 | 23 | 177 | 0.0 | 0.0 | 0.00 | 2.34 | 2.31 | 100 | 1009.4 |
| 20260903024804 | 23 | 177 | 0.0 | 0.0 | 0.00 | 2.34 | 2.31 | 100 | 1009.4 |
| 20260903024303 | 23 | 176 | 0.0 | 0.0 | 0.00 | 2.34 | 2.31 | 100 | 1009.5 |
| 20260903023304 | 23 | 181 | 0.0 | 0.0 | 0.00 | 2.34 | 2.31 | 100 | 1009.5 |
| 20260903022803 | 23 | 175 | 0.0 | 0.0 | 0.00 | 2.34 | 2.31 | 100 | 1009.5 |
| 20260903022306 | 23 | 171 | 0.0 | 0.0 | 0.00 | 2.34 | 2.31 | 100 | 1009.5 |
| 20260903021803 | 23 | 168 | 0.0 | 0.0 | 0.00 | 2.34 | 2.31 | 100 | 1009.3 |
| 20260903021303 | 23 | 187 | 0.0 | 0.0 | 0.00 | 2.34 | 2.31 | 100 | 1009.3 |
| 20260903020803 | 23 | 182 | 0.0 | 0.0 | 0.00 | 2.34 | 2.31 | 100 | 1009.3 |
| 20260903015803 | 24 | 137 | 0.0 | 0.0 | 0.00 | 2.34 | 2.31 | 97 | 1009.2 |
| 20260903015306 | 24 | 102 | 0.0 | 0.0 | 0.00 | 2.34 | 2.31 | 97 | 1009.1 |
| 20260903014803 | 24 | 102 | 0.0 | 0.0 | 0.00 | 2.34 | 2.31 | 97 | 1009.1 |
| 20260903013803 | 25 | 101 | 0.0 | 0.0 | 0.00 | 2.34 | 2.31 | 97 | 1008.9 |
| 20260903012803 | 25 | 101 | 0.0 | 0.0 | 0.00 | 2.34 | 2.31 | 97 | 1008.8 |
| 20260903012306 | 25 | 101 | 0.0 | 0.0 | 0.00 | 2.34 | 2.31 | 97 | 1008.8 |
| 20260903011804 | 25 | 101 | 0.0 | 0.0 | 0.00 | 2.34 | 2.31 | 97 | 1008.8 |
| 20260903011303 | 25 | 101 | 0.0 | 0.0 | 0.00 | 2.34 | 2.31 | 97 | 1008.7 |
| 20260903010804 | 25 | 101 | 0.0 | 0.0 | 0.00 | 2.34 | 2.31 | 97 | 1008.6 |
| 20260903010303 | 26 | 101 | 0.0 | 0.0 | 0.00 | 2.34 | 2.31 | 93 | 1008.6 |
| 20260903005804 | 26 | 101 | 0.0 | 0.0 | 0.00 | 2.34 | 2.31 | 75 | 1008.6 |
| 20260903004303 | 26 | 101 | 0.0 | 0.0 | 0.00 | 2.34 | 2.31 | 75 | 1008.7 |
| 20260903003804 | 26 | 101 | 0.0 | 0.0 | 0.00 | 2.34 | 2.31 | 75 | 1008.7 |
| 20260903003303 | 27 | 101 | 0.0 | 0.0 | 0.00 | 2.34 | 2.31 | 75 | 1008.6 |
| 20260903002804 | 27 | 101 | 0.0 | 0.0 | 0.00 | 2.34 | 2.31 | 75 | 1008.6 |
| 20260903002306 | 28 | 101 | 1.6 | 3.2 | 0.00 | 2.34 | 2.31 | 75 | 1008.6 |
| 20260903001303 | 28 | 101 | 0.0 | 3.2 | 0.00 | 2.34 | 2.31 | 75 | 1008.6 |
| 20260903000804 | 28 | 101 | 0.0 | 1.6 | 0.00 | 2.34 | 2.31 | 75 | 1008.6 |
| 20260903000303 | 28 | 82 | 0.0 | 4.8 | 0.00 | 2.34 | 2.31 | 75 | 1008.6 |
| 20260902235803 | 28 | 52 | 3.2 | 8.0 | 0.00 | 2.34 | 2.31 | 70 | 1008.6 |
| 20260902235305 | 28 | 56 | 1.6 | 4.8 | 0.00 | 2.34 | 2.31 | 70 | 1008.6 |
| 20260902234804 | 29 | 76 | 4.8 | 11.3 | 0.00 | 2.34 | 2.31 | 70 | 1008.6 |
| 20260902234303 | 29 | 76 | 1.6 | 4.8 | 0.00 | 2.34 | 2.31 | 70 | 1008.6 |
| 20260902233803 | 29 | 91 | 3.2 | 4.8 | 0.00 | 2.34 | 2.31 | 70 | 1008.6 |
| 20260902232803 | 29 | 86 | 1.6 | 4.8 | 0.00 | 2.34 | 2.31 | 70 | 1008.6 |
| 20260902232306 | 29 | 74 | 0.0 | 4.8 | 0.00 | 2.34 | 2.31 | 70 | 1008.5 |
| 20260902231803 | 29 | 76 | 1.6 | 8.0 | 0.00 | 2.34 | 2.31 | 70 | 1008.5 |
| 20260902231303 | 30 | 9 | 1.6 | 8.0 | 0.00 | 2.34 | 2.31 | 70 | 1008.5 |
| 20260902230803 | 29 | 319 | 0.0 | 0.0 | 0.00 | 2.34 | 2.31 | 70 | 1008.5 |
| 20260902230303 | 28 | 319 | 0.0 | 0.0 | 0.00 | 2.34 | 2.31 | 70 | 1008.5 |
| 20260902225803 | 29 | 319 | 0.0 | 0.0 | 0.00 | 2.34 | 2.31 | 66 | 1008.5 |
| 20260902225306 | 28 | 319 | 0.0 | 0.0 | 0.00 | 2.34 | 2.31 | 66 | 1008.6 |
| 20260902224803 | 28 | 319 | 0.0 | 0.0 | 0.00 | 2.34 | 2.31 | 66 | 1008.5 |
| 20260902224303 | 29 | 319 | 0.0 | 0.0 | 0.00 | 2.34 | 2.31 | 66 | 1008.5 |
| 20260902223803 | 30 | 319 | 0.0 | 0.0 | 0.00 | 2.34 | 2.31 | 66 | 1008.5 |
| 20260902223303 | 30 | 319 | 0.0 | 0.0 | 0.00 | 2.34 | 2.31 | 66 | 1008.5 |
| 20260902222803 | 29 | 319 | 0.0 | 3.2 | 0.00 | 2.34 | 2.31 | 66 | 1008.6 |
| 20260902222305 | 30 | 319 | 0.0 | 3.2 | 0.00 | 2.34 | 2.31 | 66 | 1008.5 |
| 20260902221803 | 30 | 319 | 0.0 | 0.0 | 0.00 | 2.34 | 2.31 | 66 | 1008.5 |
| 20260902221303 | 30 | 319 | 0.0 | 0.0 | 0.00 | 2.34 | 2.31 | 66 | 1008.5 |
| 20260902220803 | 30 | 319 | 0.0 | 1.6 | 0.00 | 2.34 | 2.31 | 66 | 1008.5 |
| 20260902215803 | 30 | 278 | 1.6 | 4.8 | 0.00 | 2.34 | 2.31 | 63 | 1008.6 |
| 20260902215306 | 30 | 280 | 1.6 | 4.8 | 0.00 | 2.34 | 2.31 | 63 | 1008.6 |
| 20260902214803 | 30 | 113 | 0.0 | 3.2 | 0.00 | 2.34 | 2.31 | 63 | 1008.5 |
| 20260902214303 | 30 | 226 | 1.6 | 4.8 | 0.00 | 2.34 | 2.31 | 63 | 1008.6 |
| 20260902213803 | 30 | 37 | 1.6 | 3.2 | 0.00 | 2.34 | 2.31 | 63 | 1008.6 |
| 20260902213304 | 31 | 183 | 1.6 | 4.8 | 0.00 | 2.34 | 2.31 | 63 | 1008.6 |
| 20260902212803 | 31 | 56 | 3.2 | 4.8 | 0.00 | 2.34 | 2.31 | 63 | 1008.7 |
| 20260902212305 | 31 | 344 | 1.6 | 4.8 | 0.00 | 2.34 | 2.31 | 63 | 1008.7 |
| 20260902211803 | 30 | 356 | 0.0 | 4.8 | 0.00 | 2.34 | 2.31 | 63 | 1008.7 |
| 20260902211303 | 30 | 251 | 4.8 | 8.0 | 0.00 | 2.34 | 2.31 | 63 | 1008.7 |
| 20260902210803 | 31 | 341 | 4.8 | 9.7 | 0.00 | 2.34 | 2.31 | 63 | 1008.7 |
| 20260902210303 | 30 | 151 | 0.0 | 4.8 | 0.00 | 2.34 | 2.31 | 63 | 1008.8 |
| 20260902205306 | 31 | 127 | 3.2 | 8.0 | 0.00 | 2.34 | 2.31 | 68 | 1008.8 |
| 20260902204803 | 30 | 175 | 0.0 | 3.2 | 0.00 | 2.34 | 2.31 | 68 | 1008.9 |
| 20260902204303 | 30 | 307 | 0.0 | 4.8 | 0.00 | 2.34 | 2.31 | 68 | 1009.1 |